Regional Weather Roundup
Issued by NWS State College, PA

Home | Current Version | Previous Version | Graphics & Text | Print | Product List | Glossary On
Versions: 1 2 3 4 5 6 7 8 9 10 11 12 13 14 15 16 17 18 19 20 21 22 23 24 25 26 27 28 29 30 31 32 33 34 35 36 37 38 39 40 41 42 43 44 45 46 47 48 49 50
000
ASUS41 KCTP 190903
RWRCTP

REGIONAL WEATHER ROUNDUP
NATIONAL WEATHER SERVICE STATE COLLEGE PA
500 AM EDT SAT APR 19 2014

Note: "fair" indicates few or no clouds below 12,000 feet with no
significant weather and/or obstructions to visibility.

* = STATION THAT DOES NOT REPORT PRECIPITATION /E.G. RAIN...SNOW...ETC/
    THUNDER OR FOG.

PAZ002>004-007>009-013>016-020>023-029>032-191000-
WESTERN PENNSYLVANIA

CITY           SKY/WX    TMP DP  RH WIND       PRES   REMARKS
ERIE           CLEAR     37  30  75 NE5       30.35R
MEADVILLE      CLEAR     37  33  85 N6        30.30R
FRANKLIN*      CLEAR     39  34  81 N6        30.31R
NEW CASTLE     FAIR      42  38  86 CALM      30.31R
BEAVER COUNTY  NOT AVBL
BUTLER*        MOCLDY    43  36  75 NE6       30.29S
PITTSBURGH INT CLOUDY    46  39  76 N6        30.27R
PITTSBURGH     MOCLDY    48  38  68 N6        30.26R
INDIANA*       MOCLDY    45  39  81 CALM      30.27R
LATROBE        CLEAR     45  37  76 CALM      30.27R
WASHINGTON CO* MOCLDY    46  37  71 N6        30.28R
$$

PAZ004>006-010>012-017>019-024>028-033>037-041-042-045-046-049>053-191000-
CENTRAL PENNSYLVANIA

CITY           SKY/WX    TMP DP  RH WIND       PRES   REMARKS
BRADFORD       CLEAR     34  29  82 N5        30.26R
DUBOIS         MOCLDY    42  34  73 N6        30.25S
CLEARFIELD     MOCLDY    40  36  86 N3        30.26S
JOHNSTOWN      MOCLDY    43  35  73 NE6       30.23R
ALTOONA        MOCLDY    39  35  86 E3        30.25R
STATE COLLEGE  MOCLDY    41  31  68 CALM      30.26R
WILLIAMSPORT   PTCLDY    36  32  85 N3        30.26S
SELINSGROVE    MOCLDY    34  32  92 CALM      30.27R
FT INDIANTOWN  NOT AVBL
CAPITAL CITY   MOCLDY    39  34  82 SW3       30.26R
HARRISBURG     MOCLDY    42  35  76 CALM      30.25R
YORK           MOCLDY    36  34  92 CALM      30.25S
$$

PAZ038>040-043-044-047-048-054-055-060>062-067>071-191000-
EASTERN PENNSYLVANIA

CITY           SKY/WX    TMP DP  RH WIND       PRES   REMARKS
SCRANTON       MOCLDY    38  32  79 VRB5      30.24S
MOUNT POCONO   MOCLDY    39  31  72 NW9       30.20S
ALLENTOWN      MOCLDY    35  31  85 SW3       30.24S
QUAKERTOWN*    PTSUNNY   36  32  87 CALM      30.24S
READING        MOCLDY    41  34  76 CALM      30.24S
LANCASTER      MOCLDY    39  33  79 W3        30.25R
COATESVILLE    PTSUNNY   39  32  75 W3        30.24F
POTTSTOWN      MOCLDY    38  33  82 CALM      30.25F
BLUE BELL      MOCLDY    39  37  93 CALM      30.24S
DOYLESTOWN     MOCLDY    37  35  92 CALM      30.23S
WILLOW GROVE   NOT AVBL
NORTH PHILA    MOCLDY    41  35  79 CALM      30.26F
PHILADELPHIA   CLOUDY    43  37  79 SW3       30.25F
$$



USA.gov is the U.S. government's official web portal to all federal, state and local government web resources and services.